{"data":{"norad_id":63033,"intl_designator":"2025-034E","name":"STARLINK-32772","alt_names":[],"object_type":"PAYLOAD","status":"ACTIVE","operator":null,"country":"US","launch_date":"2025-02-18","launch_site_code":"AFETR","launch_vehicle":null,"mission":null,"orbit_class":"UNKNOWN","rcs_meters":null,"size_class":null,"mass_kg":null,"dimensions":null,"purposes":["comms"],"wikipedia_slug":null,"has_3d_model":false,"image_url":null,"decayed_at":null,"tle_current":{"epoch":"2026-09-21T18:34:43.967136Z","epoch_age_seconds":55522,"freshness":"FRESH","line1":"1 63033U 25034E   26264.77411999  .00012537  00000+0  41498-3 0  9992","line2":"2 63033  53.1600  66.2436 0001190  78.7514 281.3621 15.31708710 89128","mean_motion":15.3170871,"eccentricity":0.000119,"inclination_deg":53.16,"raan_deg":66.2436,"arg_perigee_deg":78.7514,"mean_anomaly_deg":281.3621,"bstar":0.00041498,"rev_number":8912,"period_min":94.012653358875,"perigee_km":469.89901801919,"apogee_km":471.52904456464,"semimajor_km":6848.8510312919,"source":"CELESTRAK","updated_at":"2026-09-22T09:00:49.743989Z"}}}